Regional Weather Roundup
Issued by NWS

Home | Current Version | Previous Version | Graphics & Text | Print | Product List | Glossary On
Versions: 1 2 3 4 5 6 7 8 9 10 11 12 13 14 15 16 17 18 19 20 21 22 23 24 25 26 27 28 29 30 31 32 33 34 35 36 37 38 39 40 41 42 43 44 45 46 47 48 49 50
000
ASUS43 KOAX 240202
RWRNE

WEATHER ROUNDUP FOR NEBRASKA
NATIONAL WEATHER SERVICE OMAHA NE
900 PM CDT SAT JUL 23 2016

NOTES: SATELLITE DATA IS BEING USED TO AUGMENT CLOUD COVER ABOVE
       12000 FEET.
       "FAIR" INDICATES FEW OR NO CLOUDS BELOW 12,000 FEET WITH NO
       SIGNIFICANT WEATHER AND/OR OBSTRUCTIONS TO VISIBILITY.

  * THESE STATIONS DO NOT REPORT WEATHER SUCH AS RAIN...SNOW OR FOG.

NEZ001>004-019>022-054>056-240300-
NEBRASKA PANHANDLE

CITY           SKY/WX    TMP DP  RH WIND       PRES   REMARKS
SCOTTSBLUFF    PTCLDY    81  54  39 NE6       29.98R
ALLIANCE       MOCLDY    79  58  48 E9        29.98R
CHADRON        CLEAR     83  46  27 NE12      29.96R
KIMBALL        PTCLDY    76  55  47 SE8       30.05R
SIDNEY         PTCLDY    75  56  51 SE8       30.02F
$$

NEZ057>060-069>072-079>082-240300-
SOUTHWEST NEBRASKA

CITY           SKY/WX    TMP DP  RH WIND       PRES   REMARKS
NORTH PLATTE   CLEAR     80  67  64 N6        29.90R
IMPERIAL       PTCLDY    85  68  56 N7        29.95R
LEXINGTON      CLEAR     84  78  81 CALM      29.86R HX  94
MCCOOK         CLEAR     85  70  60 NE5       29.87R
OGALLALA       PTCLDY    83  64  52 CALM      29.97R
$$

NEZ005>010-023>029-035>040-094-240300-
NORTH CENTRAL NEBRASKA

CITY           SKY/WX    TMP DP  RH WIND       PRES   REMARKS
VALENTINE      CLEAR     84  51  31 N10       29.91R
AINSWORTH      CLEAR     80  58  46 N9        29.91R
BROKEN BOW     CLEAR     80  72  76 N5        29.87R
O`NEILL        CLEAR     85  66  54 NW9       29.82R
ORD            CLEAR     83  75  77 N5        29.81R HX  90
THEDFORD       PTCLDY    84  59  41 N10       29.94R
$$

NEZ041-046>049-061>064-073>077-083>087-240300-
SOUTH CENTRAL NEBRASKA

CITY           SKY/WX    TMP DP  RH WIND       PRES   REMARKS
GRAND ISLAND   CLEAR     87  74  64 CALM      29.82R HX  95
AURORA         CLEAR     86  81  86 CALM      29.81R HX 103
HASTINGS       CLEAR     85  76  74 NE5       29.83R HX  94
HEBRON         CLEAR     85  69  59 SE6       29.79R
HOLDREGE       CLEAR     82  75  78 CALM      29.85R
KEARNEY *      CLEAR     84  73  70 NE3       29.84S HX  91
YORK           CLEAR     86  77  74 CALM      29.81R HX  97
$$

NEZ011>018-030>034-042>045-240300-
NORTHEAST NEBRASKA

CITY           SKY/WX    TMP DP  RH WIND       PRES   REMARKS
NORFOLK        CLEAR     84  75  74 S7        29.78R HX  92
ALBION         CLEAR     83  75  77 CALM      29.80S HX  90
BLAIR          CLEAR     83  76  79 S6        29.78S HX  92
FREMONT        CLEAR     85  76  75 SE7       29.77S HX  94
TEKAMAH        CLOUDY    84  78  82 S5        29.76S HX  95
WAYNE          CLEAR     82  79  89 S3        29.78R HX  93
$$

NEZ050>053-065>068-078-088>093-240300-
SOUTHEAST NEBRASKA

CITY           SKY/WX    TMP DP  RH WIND       PRES   REMARKS
LINCOLN        CLOUDY    88  73  61 S9        29.78R HX  95
OMAHA EPPLEY   PTCLDY    87  76  69 S14       29.77R HX  97
BEATRICE       CLEAR     88  70  55 S12       29.78S HX  93
FALLS CITY     CLOUDY    86  74  67 S10       29.79S HX  94
NEBRASKA CITY  CLEAR     81  77  86 S8        29.80R
PLATTSMOUTH    CLEAR     83  78  83 SE8       29.79R HX  92
$$

NEZ044-045-051>053-067-240300-
OMAHA AREA

CITY           SKY/WX    TMP DP  RH WIND       PRES   REMARKS
OMAHA EPPLEY   PTCLDY    87  76  69 S14       29.77R HX  97
BLAIR          CLEAR     83  76  79 S6        29.78S HX  92
FREMONT        CLEAR     85  76  75 SE7       29.77S HX  94
MILLARD        CLEAR     86  78  77 SE3       29.77S HX  97
OFFUTT AFB     CLEAR     84  78  80 SE7       29.77S HX  95
PLATTSMOUTH    CLEAR     83  78  83 SE8       29.79R HX  92
WAHOO          FAIR      84  78  84 SE5       29.78R HX  94
$$




USA.gov is the U.S. government's official web portal to all federal, state and local government web resources and services.